Temp
-2 -2 -2 -1 -1 -1 -1 -1 -1 -2 -2 -2 -3 -3 -3 -3 -3 -3 -3 -3 -3 -4 -4 -4 -4 -5 -5 -6 -5 -4 -4 -5 -5 -6 -6 -7 -7 -7 -7 -7 -6 -6 -6 -7 -6
-2 -2 -1 -1 -1 -1 -1 -1 -2 -2 -2 -2 -2 -3 -3 -3 -3 -3 -3 -3 -4 -4 -4 -4 -4 -5 -5 -5 -6 -5 -4 -4 -6 -6 -6 -7 -7 -7 -7 -7 -7 -6 -6 -7 -7
-1 -1 -1 -1 -1 -1 -1 -2 -2 -2 -2 -2 -3 -3 -3 -3 -3 -4 -4 -4 -4 -4 -4 -4 -4 -5 -5 -5 -6 -5 -5 -5 -5 -6 -7 -6 -7 -7 -7 -7 -7 -8 -6 -7 -7
-1 -1 -1 -1 -2 -2 -2 -3 -3 -3 -3 -3 -3 -3 -3 -3 -3 -3 -4 -4 -4 -5 -5 -5 -5 -5 -5 -5 -5 -6 -6 -6 -6 -4 -5 -6 -8 -8 -8 -8 -8 -8 -7 -7 -7
-1 -2 -2 -2 -3 -3 -3 -3 -3 -3 -3 -3 -3 -3 -3 -3 -3 -4 -4 -4 -4 -4 -4 -4 -5 -5 -5 -5 -6 -6 -6 -6 -5 -5 -5 -5 -7 -7 -7 -7 -8 -8 -8 -7 -7
-2 -2 -3 -3 -3 -3 -3 -3 -3 -3 -3 -3 -3 -3 -3 -3 -3 -4 -4 -4 -4 -4 -4 -4 -4 -4 -4 -5 -5 -6 -5 -5 -6 -5 -5 -5 -5 -7 -7 -7 -8 -8 -8 -7 -7
-3 -3 -4 -3 -3 -3 -3 -3 -3 -3 -3 -3 -3 -3 -3 -3 -3 -3 -4 -4 -4 -4 -4 -4 -4 -4 -4 -4 -5 -4 -4 -5 -5 -5 -6 -7 -7 -7 -7 -8 -7 -8 -8 -7 -7
-4 -4 -4 -3 -3 -3 -3 -3 -3 -3 -3 -3 -3 -3 -3 -3 -3 -3 -3 -3 -4 -4 -4 -4 -4 -4 -4 -4 -4 -4 -4 -4 -5 -7 -7 -7 -7 -7 -7 -7 -7 -7 -7 -7 -5
-4 -4 -4 -4 -3 -3 -3 -3 -3 -3 -3 -3 -3 -3 -4 -4 -3 -3 -3 -3 -4 -4 -4 -4 -4 -4 -4 -4 -4 -4 -4 -4 -6 -7 -7 -7 -7 -7 -7 -8 -7 -7 -8 -8 -7
-4 -4 -4 -4 -3 -3 -3 -3 -3 -3 -3 -3 -4 -4 -4 -4 -4 -3 -4 -4 -4 -4 -4 -4 -4 -4 -4 -4 -4 -4 -5 -6 -6 -7 -7 -7 -7 -8 -8 -8 -8 -8 -8 -7 -7
-4 -4 -4 -4 -4 -4 -4 -3 -3 -3 -3 -3 -4 -4 -4 -4 -4 -4 -4 -4 -4 -4 -4 -4 -4 -5 -5 -5 -5 -5 -5 -5 -5 -6 -6 -7 -8 -8 -8 -8 -8 -8 -8 -8 -7
-4 -4 -4 -4 -4 -4 -4 -4 -3 -3 -4 -4 -4 -4 -4 -4 -4 -4 -4 -4 -4 -4 -4 -4 -4 -5 -4 -5 -5 -5 -5 -5 -5 -5 -7 -7 -7 -8 -8 -8 -8 -8 -8 -8 -8
-4 -4 -4 -4 -4 -4 -4 -4 -4 -4 -4 -4 -4 -4 -4 -4 -4 -4 -4 -4 -4 -4 -4 -4 -5 -6 -6 -6 -6 -6 -6 -6 -6 -6 -6 -8 -6 -7 -8 -8 -8 -8 -8 -8 -8
-4 -4 -4 -4 -4 -4 -4 -4 -4 -4 -5 -4 -4 -4 -4 -4 -4 -5 -5 -5 -5 -5 -4 -5 -5 -5 -6 -6 -6 -6 -7 -7 -7 -7 -6 -8 -8 -8 -8 -8 -8 -8 -8 -8 -8
-5 -5 -5 -5 -5 -5 -5 -5 -5 -5 -5 -5 -5 -5 -5 -5 -5 -4 -5 -5 -5 -4 -4 -5 -5 -6 -6 -6 -6 -6 -6 -6 -6 -6 -6 -7 -9 -8 -8 -8 -8 -8 -8 -8 -8
-5 -5 -5 -5 -5 -5 -6 -6 -6 -6 -6 -5 -5 -5 -5 -5 -5 -5 -5 -4 -4 -4 -4 -5 -5 -6 -7 -6 -6 -6 -6 -6 -7 -9 -8 -8 -9 -9 -8 -8 -8 -8 -8 -8 -8
-6 -6 -6 -5 -6 -6 -6 -6 -6 -6 -6 -6 -6 -6 -6 -6 -6 -5 -5 -6 -5 -5 -5 -6 -8 -10 -8 -7 -8 -9 -9 -9 -9 -9 -9 -9 -9 -8 -9 -9 -8 -8 -10 -9 -8
-6 -6 -6 -6 -6 -6 -6 -6 -7 -7 -6 -6 -6 -6 -6 -6 -6 -5 -6 -6 -7 -5 -6 -6 -7 -8 -7 -8 -8 -10 -11 -11 -11 -10 -10 -9 -9 -9 -9 -9 -9 -10 -9 -9 -9
-7 -7 -7 -7 -7 -7 -7 -7 -7 -6 -6 -6 -7 -6 -7 -6 -6 -6 -6 -6 -7 -6 -6 -6 -6 -7 -8 -8 -9 -10 -11 -11 -11 -10 -10 -9 -9 -10 -10 -10 -11 -10 -10 -10 -10
-7 -6 -7 -7 -7 -7 -7 -7 -7 -6 -7 -7 -7 -7 -7 -8 -7 -7 -7 -8 -7 -6 -7 -7 -7 -7 -7 -8 -9 -11 -11 -11 -11 -11 -11 -9 -10 -10 -10 -10 -11 -9 -10 -9 -9
-7 -7 -7 -7 -7 -7 -7 -7 -7 -7 -7 -7 -7 -7 -7 -7 -7 -8 -8 -9 -7 -7 -7 -7 -7 -8 -8 -8 -9 -11 -11 -11 -11 -11 -12 -11 -10 -10 -11 -10 -10 -11 -10 -10 -10
-7 -7 -7 -7 -7 -8 -8 -7 -7 -7 -7 -7 -7 -8 -8 -8 -8 -8 -9 -10 -7 -8 -8 -8 -8 -8 -8 -9 -10 -12 -12 -11 -12 -12 -12 -11 -10 -11 -11 -11 -11 -10 -11 -9 -11
-8 -8 -7 -8 -8 -8 -8 -7 -8 -8 -8 -8 -8 -8 -8 -8 -8 -8 -9 -9 -9 -8 -8 -8 -8 -8 -9 -10 -12 -12 -12 -12 -12 -12 -11 -12 -10 -11 -11 -11 -10 -10 -11 -10 -11
-8 -9 -8 -8 -9 -8 -9 -8 -8 -8 -8 -8 -8 -9 -9 -9 -9 -9 -9 -9 -9 -9 -9 -9 -9 -9 -9 -10 -11 -11 -11 -12 -12 -11 -12 -11 -12 -12 -11 -12 -11 -9 -10 -10 -11
-9 -9 -9 -9 -9 -8 -9 -9 -9 -9 -9 -8 -9 -9 -9 -9 -9 -9 -9 -9 -10 -10 -9 -9 -9 -9 -9 -10 -11 -11 -11 -12 -13 -13 -13 -12 -12 -12 -12 -12 -12 -10 -10 -10 -11
-9 -9 -9 -10 -10 -9 -9 -9 -9 -10 -10 -10 -9 -10 -10 -10 -9 -9 -9 -10 -10 -10 -10 -10 -10 -10 -9 -10 -11 -12 -12 -13 -13 -13 -13 -13 -11 -11 -12 -11 -11 -11 -10 -10 -12
-10 -10 -10 -10 -10 -10 -10 -10 -10 -9 -10 -10 -10 -10 -10 -10 -10 -10 -10 -10 -11 -11 -11 -11 -10 -10 -10 -10 -11 -13 -12 -12 -13 -13 -12 -12 -12 -11 -11 -11 -10 -10 -11 -11 -11
Height
5924 5924 5924 5923 5922 5921 5920 5919 5918 5918 5917 5916 5916 5915 5914 5913 5912 5912 5912 5912 5912 5912 5912 5911 5911 5910 5910 5910 5909 5910 5912 5911 5910 5905 5910 5919 5914 5916 5912 5905 5903 5901 5899 5896 5893
5923 5923 5922 5921 5920 5919 5918 5917 5917 5916 5915 5914 5913 5912 5910 5910 5909 5908 5909 5908 5908 5908 5908 5908 5908 5908 5908 5908 5908 5908 5909 5910 5909 5906 5913 5913 5913 5913 5916 5912 5901 5897 5897 5896 5893
5921 5921 5920 5919 5918 5917 5916 5915 5914 5913 5912 5911 5910 5908 5908 5908 5907 5907 5904 5905 5905 5906 5906 5905 5905 5906 5906 5906 5906 5906 5905 5907 5908 5906 5907 5908 5909 5910 5912 5912 5907 5895 5895 5897 5894
5919 5919 5918 5917 5915 5915 5914 5914 5913 5913 5912 5911 5909 5908 5907 5907 5908 5906 5904 5903 5903 5902 5902 5902 5902 5902 5903 5904 5904 5903 5903 5903 5903 5904 5903 5903 5904 5907 5907 5907 5908 5902 5893 5897 5894
5917 5916 5915 5915 5914 5914 5914 5914 5913 5912 5911 5910 5909 5907 5907 5907 5906 5904 5904 5903 5902 5901 5901 5900 5900 5899 5898 5899 5900 5900 5900 5900 5899 5899 5900 5900 5900 5900 5901 5902 5905 5900 5891 5894 5893
5915 5914 5913 5913 5914 5914 5913 5913 5912 5911 5910 5909 5907 5906 5906 5906 5904 5903 5903 5902 5901 5900 5900 5899 5898 5897 5896 5896 5895 5896 5895 5895 5895 5895 5895 5895 5896 5895 5897 5898 5901 5897 5889 5889 5890
5912 5912 5913 5913 5913 5913 5913 5912 5911 5910 5909 5907 5906 5905 5904 5903 5902 5902 5901 5901 5900 5899 5898 5897 5896 5895 5894 5894 5893 5891 5890 5891 5891 5890 5891 5893 5894 5895 5895 5895 5896 5898 5889 5882 5886
5911 5911 5912 5912 5912 5912 5912 5911 5910 5909 5907 5906 5904 5903 5903 5901 5900 5900 5899 5899 5898 5897 5895 5895 5893 5893 5891 5890 5890 5889 5888 5886 5888 5887 5891 5892 5890 5890 5890 5891 5893 5894 5889 5882 5880
5910 5910 5910 5910 5910 5910 5910 5909 5908 5907 5905 5904 5903 5902 5902 5900 5899 5897 5897 5896 5895 5894 5893 5892 5890 5890 5889 5887 5887 5885 5884 5883 5884 5888 5890 5891 5886 5885 5885 5885 5885 5886 5885 5881 5875
5909 5908 5908 5908 5908 5907 5906 5906 5905 5904 5903 5902 5901 5901 5899 5898 5896 5895 5894 5893 5892 5890 5889 5888 5886 5886 5884 5883 5883 5882 5880 5880 5881 5884 5885 5886 5884 5881 5880 5879 5880 5877 5877 5877 5876
5906 5906 5905 5905 5904 5903 5903 5902 5903 5902 5900 5899 5898 5896 5895 5894 5894 5893 5891 5890 5888 5887 5885 5883 5882 5881 5878 5878 5877 5876 5875 5874 5875 5875 5874 5872 5872 5874 5873 5871 5871 5870 5869 5870 5872
5903 5902 5901 5901 5900 5900 5898 5898 5897 5898 5897 5895 5894 5893 5891 5890 5890 5890 5888 5886 5885 5883 5881 5880 5878 5876 5874 5874 5872 5872 5869 5868 5867 5866 5864 5864 5862 5863 5863 5863 5862 5864 5863 5865 5867
5898 5898 5898 5897 5896 5896 5894 5894 5893 5892 5891 5893 5890 5888 5888 5887 5886 5885 5884 5882 5880 5878 5876 5874 5874 5872 5871 5870 5867 5865 5862 5860 5858 5856 5855 5854 5851 5853 5855 5855 5855 5854 5855 5858 5862
5893 5893 5893 5893 5893 5891 5890 5889 5888 5886 5884 5888 5887 5885 5883 5882 5882 5881 5879 5878 5875 5874 5871 5871 5869 5867 5864 5864 5861 5859 5858 5854 5851 5849 5846 5851 5842 5847 5849 5850 5852 5850 5850 5851 5855
5888 5888 5887 5887 5887 5886 5885 5883 5882 5882 5879 5881 5881 5880 5878 5878 5875 5875 5876 5872 5870 5869 5867 5866 5864 5861 5859 5856 5854 5853 5849 5846 5843 5840 5837 5839 5839 5837 5841 5842 5845 5844 5844 5846 5849
5882 5882 5882 5881 5880 5880 5879 5879 5878 5878 5874 5875 5874 5875 5873 5871 5871 5870 5866 5866 5864 5864 5861 5859 5857 5854 5852 5848 5847 5843 5840 5837 5834 5832 5828 5830 5832 5830 5834 5836 5838 5839 5838 5833 5836
5874 5874 5873 5873 5874 5873 5873 5874 5874 5871 5871 5868 5870 5869 5868 5866 5864 5863 5862 5860 5857 5857 5857 5856 5854 5851 5845 5843 5841 5837 5835 5831 5831 5831 5827 5830 5828 5827 5828 5831 5833 5827 5812 5821 5834
5868 5867 5867 5867 5866 5866 5866 5868 5868 5864 5864 5865 5863 5863 5862 5860 5859 5859 5857 5855 5849 5849 5850 5849 5849 5844 5842 5839 5834 5830 5829 5827 5820 5820 5818 5819 5819 5817 5818 5819 5820 5820 5819 5822 5829
5861 5861 5860 5860 5860 5860 5861 5861 5858 5857 5860 5859 5859 5857 5856 5852 5856 5853 5851 5850 5846 5843 5844 5841 5841 5837 5834 5829 5828 5825 5822 5822 5817 5815 5811 5813 5812 5810 5805 5805 5804 5811 5812 5813 5816
5852 5853 5854 5854 5854 5854 5855 5854 5850 5853 5852 5852 5852 5850 5851 5847 5848 5845 5844 5840 5838 5836 5836 5833 5831 5830 5827 5823 5821 5821 5819 5810 5812 5806 5801 5803 5803 5796 5795 5798 5800 5785 5784 5787 5793
5845 5844 5848 5846 5846 5846 5847 5845 5845 5845 5846 5846 5844 5844 5843 5842 5840 5841 5839 5836 5829 5830 5827 5826 5825 5824 5820 5817 5812 5809 5805 5804 5800 5802 5795 5795 5799 5793 5791 5787 5791 5787 5781 5769 5786
5837 5836 5840 5838 5839 5838 5837 5837 5839 5837 5837 5838 5837 5836 5834 5834 5832 5832 5832 5827 5823 5823 5820 5820 5817 5814 5812 5809 5805 5803 5796 5796 5795 5794 5793 5788 5784 5786 5784 5785 5777 5783 5774 5747 5771
5828 5829 5829 5829 5830 5829 5827 5829 5830 5830 5829 5829 5829 5828 5827 5827 5826 5824 5822 5820 5817 5816 5813 5814 5810 5807 5805 5804 5799 5795 5794 5790 5788 5786 5784 5781 5776 5780 5780 5782 5776 5766 5769 5756 5759
5820 5820 5819 5823 5821 5822 5821 5821 5821 5820 5823 5820 5821 5820 5819 5818 5817 5816 5815 5813 5810 5808 5807 5805 5802 5800 5798 5795 5792 5788 5788 5787 5785 5782 5780 5771 5770 5770 5774 5774 5770 5767 5767 5753 5755
5810 5810 5811 5811 5810 5814 5814 5813 5813 5812 5810 5812 5813 5812 5810 5809 5808 5807 5806 5805 5803 5800 5799 5797 5794 5793 5791 5786 5783 5782 5781 5780 5781 5780 5780 5780 5770 5765 5768 5766 5765 5755 5748 5741 5751
5799 5801 5801 5803 5802 5802 5803 5805 5803 5803 5803 5802 5802 5802 5802 5800 5800 5797 5798 5796 5796 5795 5792 5789 5787 5784 5783 5779 5776 5775 5776 5776 5776 5776 5774 5772 5755 5758 5759 5760 5757 5753 5746 5745 5746
5787 5788 5790 5792 5792 5793 5793 5793 5792 5793 5794 5793 5792 5792 5791 5791 5788 5791 5789 5789 5788 5786 5785 5782 5779 5776 5774 5772 5769 5770 5767 5766 5762 5764 5760 5755 5754 5752 5750 5751 5752 5752 5749 5745 5750
Wind_Speed
4 5 6 7 9 10 11 13 14 14 15 16 16 16 16 16 16 17 17 16 14 13 13 14 14 15 13 12 11 7 3 4 16 6 6 9 13 8 19 25 30 30 30 22 20
8 9 11 11 12 13 15 17 18 18 19 19 18 17 19 18 20 20 18 18 17 15 15 12 13 14 14 14 14 14 8 7 14 23 16 7 11 6 11 12 33 30 23 19 18
11 12 13 14 16 17 18 18 16 14 12 12 11 11 12 12 14 13 15 18 17 18 18 19 19 15 14 14 15 15 17 13 15 17 22 20 11 10 13 5 17 35 30 17 15
13 14 15 17 18 16 11 6 6 8 9 10 10 10 9 8 9 11 7 10 10 12 14 16 18 20 18 16 16 18 19 19 21 19 21 22 20 14 18 12 11 26 35 16 17
15 16 16 15 9 3 4 7 7 8 9 9 10 11 11 10 8 7 6 7 6 7 8 10 11 14 14 16 17 19 20 21 21 22 22 21 23 23 21 17 9 25 37 22 21
17 15 11 4 2 5 6 8 8 8 9 11 12 12 12 10 8 8 8 8 9 9 10 11 12 13 12 12 14 15 19 18 20 19 20 20 22 21 21 16 12 29 39 30 20
13 7 6 4 5 6 8 9 9 8 10 11 12 12 12 12 11 10 9 9 9 11 11 12 13 15 15 14 14 16 16 15 13 13 14 16 21 20 18 21 16 20 37 37 21
7 7 8 7 7 8 10 10 10 10 11 11 12 13 11 12 11 10 11 12 13 15 16 16 18 17 18 19 18 19 21 21 14 12 14 21 25 16 14 13 15 20 32 41 28
7 8 10 10 10 13 14 13 13 12 13 14 14 15 13 14 14 13 13 14 14 16 17 19 21 21 22 24 23 23 23 22 21 14 16 19 28 32 16 17 22 27 29 29 36
8 10 12 13 15 16 16 15 14 13 15 16 17 18 17 16 17 16 16 17 17 18 20 21 23 22 22 24 24 23 25 23 22 18 21 21 29 28 20 21 22 26 27 26 24
11 13 15 16 17 18 17 16 16 17 17 18 19 21 20 20 19 18 18 18 19 21 22 25 25 24 25 25 27 28 28 29 28 26 30 34 29 28 32 28 23 29 21 23 26
16 16 17 19 20 20 19 18 18 18 18 20 21 22 21 21 20 18 20 21 20 22 24 25 26 27 30 27 29 27 29 30 30 29 28 29 33 32 33 33 27 28 27 22 21
19 19 19 20 20 20 20 21 22 23 23 20 22 22 21 21 19 20 21 22 23 24 26 28 26 24 25 28 28 30 34 35 37 35 33 30 38 32 28 32 21 21 21 21 22
22 22 20 20 21 21 23 26 26 26 27 21 19 20 21 21 21 20 21 23 25 25 29 29 30 30 31 32 32 36 29 32 37 37 42 22 39 29 26 24 20 24 21 16 24
23 22 22 22 25 26 27 26 25 23 25 23 19 19 22 22 24 23 20 25 26 27 31 30 29 29 32 34 34 35 35 37 38 41 43 37 31 32 26 24 22 26 26 19 23
28 27 27 28 28 28 26 23 23 22 25 24 23 21 23 25 24 23 28 27 29 30 34 34 35 36 35 40 40 40 40 39 38 31 38 31 27 30 27 26 23 26 22 32 31
25 26 27 29 29 28 26 23 22 23 24 28 22 24 25 27 28 28 27 28 31 32 31 28 16 14 31 42 34 32 27 29 28 27 30 25 27 26 21 17 20 25 36 32 29
26 26 25 23 21 22 24 25 24 28 29 25 28 28 29 30 29 28 29 28 33 37 33 33 28 29 37 35 36 32 23 21 29 27 30 23 26 27 23 26 26 34 37 29 33
26 25 25 25 24 23 20 20 30 32 28 29 29 32 28 34 28 30 30 28 31 36 34 35 36 36 36 37 28 26 21 19 26 27 26 26 23 20 15 33 15 25 20 32 36
31 31 29 27 26 25 24 25 30 24 27 29 27 30 28 29 32 31 30 34 35 37 34 36 40 37 37 33 27 15 22 28 20 26 27 26 13 29 28 25 26 26 32 33 43
30 31 25 28 27 27 26 29 30 29 28 29 30 30 31 32 33 28 28 31 40 37 36 38 40 38 38 31 30 26 31 29 33 33 30 25 15 33 27 38 36 34 43 30 19
30 32 25 29 28 28 28 30 27 30 31 29 30 31 32 32 33 31 28 30 40 36 39 38 38 39 34 29 22 18 25 29 37 33 33 33 37 35 34 32 36 38 49 29 58
30 30 30 29 30 30 33 32 30 30 32 33 31 32 32 32 34 33 33 33 35 35 40 36 37 37 32 23 18 25 25 34 20 28 20 31 32 33 36 34 43 50 55 21 11
31 31 33 28 30 32 34 35 34 36 31 34 33 33 33 33 34 34 34 32 34 37 37 36 37 34 32 30 26 32 34 23 27 27 21 34 40 42 33 32 40 45 45 45 19
34 34 32 33 35 30 31 34 35 36 39 37 35 34 35 36 36 35 35 35 33 35 35 34 36 33 32 31 28 25 26 30 27 28 25 33 40 43 31 24 28 19 31 33 22
37 35 36 32 34 35 34 34 36 37 38 40 39 37 37 38 37 37 35 34 33 32 32 31 33 34 33 28 26 24 21 23 23 23 24 28 41 42 36 27 19 23 19 28 14
40 38 37 36 36 36 37 38 40 39 39 40 41 40 41 37 42 34 35 32 30 31 29 30 31 32 32 27 25 19 23 23 30 30 37 32 41 42 37 31 26 23 23 19 23
Wind_Direction
358 345 337 328 319 313 306 302 296 291 288 288 289 289 288 289 288 291 296 296 301 297 299 298 297 294 292 287 288 298 152 110 303 285 69 312 324 356 342 337 334 335 336 340 356
325 322 318 313 305 298 296 296 299 301 300 300 297 291 287 290 289 289 292 283 284 285 283 282 282 287 291 288 281 287 284 229 278 335 315 295 285 298 338 344 314 329 325 335 346
318 312 305 301 298 299 301 302 306 307 309 315 317 310 307 306 304 342 297 291 289 288 288 291 293 290 285 282 282 281 282 279 226 237 240 248 282 283 286 286 333 314 303 314 332
299 297 297 299 298 303 316 351 14 360 346 339 333 338 352 12 3 18 341 320 312 306 304 303 298 297 294 293 289 287 289 285 281 270 271 276 284 278 265 270 284 296 291 312 314
291 293 294 293 297 315 331 331 333 339 334 333 335 332 334 337 333 336 339 340 346 330 319 320 320 310 307 295 289 284 281 281 287 284 290 289 280 283 276 274 268 271 277 297 306
291 291 287 254 290 314 327 324 324 322 324 322 323 328 336 341 324 313 318 317 323 323 321 318 317 310 319 305 296 287 285 286 285 285 286 285 284 284 281 276 267 276 285 289 283
280 262 204 231 289 303 311 316 319 319 324 324 317 320 331 329 321 319 322 323 321 318 318 313 310 308 307 305 293 299 298 298 295 289 295 296 281 273 268 267 269 237 279 289 278
235 225 234 257 284 300 305 305 304 304 314 319 320 318 329 323 321 315 315 309 311 308 310 311 306 304 300 298 301 295 296 300 301 311 296 280 285 279 285 273 260 267 264 274 285
236 245 257 274 288 297 298 294 293 298 305 307 308 308 313 309 306 306 306 305 311 309 309 307 305 305 300 300 298 298 298 300 313 315 303 266 274 286 268 277 251 228 234 260 286
248 263 273 280 291 297 300 298 289 291 295 298 300 302 307 301 300 301 301 304 307 310 313 310 309 308 302 299 303 304 303 292 274 254 242 256 273 284 271 259 268 259 259 265 259
270 280 283 283 293 297 295 289 283 286 291 296 299 299 298 298 298 299 300 300 305 309 310 313 312 312 308 309 312 310 305 300 296 287 257 233 249 270 266 276 263 285 275 266 262
277 281 285 285 288 293 294 292 287 282 282 294 295 296 296 296 294 295 296 298 300 305 309 310 313 312 311 315 310 305 302 303 298 288 278 278 275 270 266 266 266 250 262 246 266
278 282 283 284 288 290 295 295 292 288 286 284 286 292 293 291 292 296 294 298 303 308 312 316 317 309 304 307 306 304 306 305 301 298 288 282 284 283 274 271 292 294 265 226 241
276 277 276 278 283 291 297 298 292 288 285 280 281 289 291 292 290 292 298 300 302 308 310 315 310 310 309 306 302 305 302 291 293 295 293 273 280 275 269 267 269 261 259 242 243
272 271 274 277 283 291 298 293 286 284 284 291 286 289 295 296 299 295 293 298 300 306 306 309 306 307 302 302 303 305 299 298 296 294 293 286 272 280 277 259 250 248 268 245 236
273 274 275 278 282 287 291 284 285 282 277 278 290 293 296 295 293 295 302 298 294 295 300 307 312 310 304 302 307 305 303 302 307 304 290 295 278 277 268 262 251 265 254 235 216
281 281 281 280 278 277 277 276 278 278 279 284 288 291 296 294 300 300 301 304 301 300 301 305 316 295 299 305 307 298 298 298 287 285 283 289 286 285 280 268 261 255 241 220 218
283 283 284 287 291 282 272 269 271 272 274 283 287 291 291 292 295 296 299 301 296 297 302 302 297 285 303 304 298 301 307 298 300 294 292 273 273 292 275 239 242 244 249 234 218
280 283 285 287 286 286 286 278 262 268 276 279 283 283 290 293 291 295 294 290 285 293 299 301 297 305 306 305 304 297 286 287 277 289 290 282 271 286 257 234 216 222 222 234 216
282 280 280 281 283 283 281 277 276 284 281 276 279 281 286 284 293 294 294 290 290 293 300 299 298 305 307 308 307 319 301 293 276 270 276 262 253 255 260 248 215 221 202 219 213
281 280 281 281 280 281 281 278 281 281 278 279 279 281 283 284 284 284 283 280 286 296 297 298 302 306 308 305 296 272 251 260 268 268 259 272 263 251 261 261 220 218 216 215 233
281 282 280 281 282 281 282 280 281 282 281 279 280 279 280 279 283 282 280 277 288 294 295 301 304 305 308 306 285 280 282 273 268 282 261 264 271 252 248 255 263 259 233 242 229
281 280 280 279 280 280 280 277 280 280 281 281 280 278 278 281 280 280 278 281 286 289 292 299 301 307 305 307 270 269 274 279 302 271 264 267 278 272 246 256 264 260 257 295 225
281 281 280 278 276 274 273 277 279 278 275 279 280 281 282 281 279 280 280 280 284 289 293 296 300 305 304 298 278 261 269 270 297 283 304 307 308 296 296 292 275 260 271 251 236
280 278 278 279 279 275 270 270 271 275 276 271 273 278 279 278 278 279 278 280 283 289 293 296 297 299 300 296 285 274 287 266 264 268 277 277 279 288 300 298 292 307 274 260 238
275 275 276 271 273 276 273 270 269 267 268 271 276 274 273 277 278 273 280 279 284 285 289 291 295 298 301 293 281 284 294 280 287 287 279 265 270 292 280 299 300 305 304 270 208
272 271 272 271 269 268 269 269 267 266 267 268 269 269 274 273 273 280 274 278 282 284 284 286 290 294 300 294 284 291 276 254 240 246 251 262 261 284 291 288 295 284 268 274 246